Погода в Новоселовке

Украина / Одесская область     46°00′31″N   29°36′54″E
темп.,
°C
ветер,
м/с
пор.,
м/с
влажн.,
%
обл.,
%
осадки,
мм/ч
давл.,
гПа
погр.,
м
2 марта, вт
вт223:00+2с498184 0.0 1033370
02:00+1с368385 0.0 1034178
05:00+1сз238276 0.0 103380
08:00+2сз237788 0.0 1033194
11:00+6зсз346234 0.0 10321016
14:00+7зсз565959 0.0 1030957
17:00+8з595423 0.0 1027682
20:00+6з5116337 0.0 1026223
3 марта, ср
ср323:00+5зсз513720 0.0 1026363
02:00+5ссз714790 0.0 1028532
05:00+3ссз511867 0.0 1028389
08:00+4с597442 0.0 1030884
11:00+8ссз575718 0.0 10301112
14:00+10ссз46409 0.0 10301298
17:00+9ссз34430 0.0 1028943
20:00+6с005734 0.0 102922
4 марта, чт
чт423:00+5ю22620 0.0 102822
02:00+4ююз34820 0.0 102679
05:00+3ююз46860 0.0 1023117
08:00+5ююз510780 0.0 1022315
11:00+11юз710560 0.0 1020760
14:00+14юз810460 0.0 1017936
17:00+13юз59497 0.0 1015459
20:00+9ююз59708 0.0 1015188
5 марта, пт
пт523:00+7ююз497616 0.0 1014169
02:00+6юз338020 0.0 101349
05:00+5ююз348280 0.0 101251
08:00+7юз357390 0.0 1012126
11:00+12юз455184 0.0 1011453
14:00+15зюз453765 0.0 1010923
17:00+15зсз244120 0.0 1009119
20:00+10юз474910 0.0 1011139
6 марта, сб
сб623:00+8сз126062 0.0 101239
02:00+6с7118573 0.0 1014461
05:00+5с71086100 0.0 1016564
08:00+1ссв81293100 0.1 1019677
11:00+4с81054100 0.1 10211229
14:00+5с8941100 0.1 10231533
17:00+4с6841100 0.1 10241733
20:00+1с354752 0.1 1027122